OBJECT B, 67220

Orbit data source: Space-Track

You're viewing an Uncataloged Satellite

Recently launched and/or uncataloged satellites may have evolving metadata. Metadata may include but not limited to: Owner, Maufacturer, Bus, Motor, and Mission.

OBJECT B, 67220 is a satellite owned by USAF STP (US) in LEO that was launched on Thu, 18 Dec 2025 UTC via an ELECTRON launch vehicle from the Wallops Island (WLPIS). Unknown objects in Earth's orbit typically refer to objects detected orbiting the Earth but have not yet been identified or cataloged. These objects could be anything from previously untracked satellites, spent rocket stages, debris from satellite collisions, or even natural meteoroids temporarily captured by Earth's gravity.

Loading next visibility...
Identifier
67220, 2025-305B
Orbit
LEO
Country
Flag of USUS
Related business
Manufacturer
AERO
Mission
Operational spacecraft
Bus & Motor
DISKSAT, EP
Mass
3 kg wet, 3 kg dry
Launch date (UTC)
2025-12-18 (4 days ago)
Launch vehicle
ELECTRON
Launch site
Wallops Island (WLPIS)
Object type
Unknown
Shape & HBR
Unknown
Radar Cross Section
RCS unknown

Expand to show TLE details & history
Last TLE update: 1 day ago

TLE from 1 day ago
0 OBJECT B
1 67220U 25305B   25354.24828476  .00000511  00000-0  51086-4 0  9993
2 67220  45.0108 310.7693 0004681 270.4757  89.5581 15.05702195   312
Epoch: 2025-12-20T05:57Z
TLE epoch observation values (Epoch: 2025-12-20T05:57:31.803Z)
Latitude
-0.00003°
Longitude
132.30894°
Altitude
549.327 km
Speed
7.589 km/s
True Right ascension
20h 43m 04s
True Declination
0° 00' 00"
Sunlit
Object was in daylight at epoch
Visualization orbit readout
Latitude
Unknown
Longitude
Unknown
Altitude
Unknown
Speed
Unknown
Apparent Right ascension
Unknown
Apparent Declination
Unknown
Sunlit
N/A
Visualization observer readout
Local Sidereal Time
12:16:31
Azimuth
Unknown
Elevation
Unknown
Doppler factor
Unknown
Orbital elements
Apogee altitude
554.187 km
Perigee altitude
547.7 km
Semi-major axis
6,929.08 km
Eccentricity
0.00047
Inclination
45.0108°
RAAN
310.7693°
Arg. of periapsis
270.4757°
True anomaly
89.61174°
Mean anomaly
89.5581°
Eccentric anomaly
89.58492°
Mean motion
3.76296 °/min
Orbital period
95.67 mins
BSTAR
0.000051086
Loading maneuver chart data...
Computing Atmospheric mass density...
Loading historical data...
Loading historical data...
Loading historical data...
Loading historical data...
Loading historical data...
Loading historical data...
Loading historical data...
Other satellites on launch #305 in the year 2025 (2025-12-18 UTC)

Documentation

Showing up to 5 results
|